Regional Weather Roundup
Issued by NWS Jackson, KY

Home | Current Version | Previous Version | Text Only | Print | Product List | Glossary On
Versions: 1 2 3 4 5 6 7 8 9 10 11 12 13 14 15 16 17 18 19 20 21 22 23 24 25 26 27 28 29 30 31 32 33 34 35 36 37 38 39 40 41 42 43 44 45 46 47 48 49 50
000
ASUS43 KJKL 240719
RWRJKL

EAST KENTUCKY HOURLY WEATHER ROUNDUP
NATIONAL WEATHER SERVICE JACKSON KY
300 AM EDT THU APR 24 2014

NOTE: "FAIR" INDICATES FEW OR NO CLOUDS BELOW 12,000 FEET WITH
NO SIGNIFICANT WEATHER AND/OR OBSTRUCTIONS TO VISIBILITY.

* THESE REPORTS ARE NOT UNDER NWS QUALITY CONTROL AND MAY NOT
  REPORT WEATHER SUCH AS PRECIPITATION AND FOG.

KYZ079-080-083-085-087-088-110-112-115-119-120-240800
...EASTERN KENTUCKY...

CITY           SKY/WX    TMP DP  RH WIND       PRES   REMARKS
JACKSON        CLEAR     48  30  49 VRB3      30.05S
LONDON         CLEAR     46  33  60 VRB3      30.02F
SOMERSET*      PTCLDY    45  32  61 CALM      30.04S
WILLIAMSBURG*  CLEAR     41  36  81 CALM      30.02F
MIDDLESBORO*   CLEAR     40  36  86 CALM      30.03F
HARLAN APT*    SUNNY     43  32  65 CALM      30.03S
BLACK MTN*       N/A     41  27  56 E3          N/A
PIKEVILLE APT* CLEAR     46  30  53 NE6       30.04F
BIG SANDY*     SUNNY     44  33  64 NE5       30.06S
ASHLAND*       CLEAR     45  34  65 CALM      30.08S
MOREHEAD APT*  SUNNY    N/A N/A N/A MISG      30.09R
$$

KYZ035-036-041-042-044-050-067-078-099-240800
...CENTRAL KENTUCKY...

CITY           SKY/WX    TMP DP  RH WIND       PRES   REMARKS
MT STERLING*   PTCLDY    46  34  61 E9        30.07S
FLEMING/MASON* MOCLDY    43  34  70 E6        30.09R
DANVILLE*      PTCLDY    43  34  70 CALM      30.05S
RICHMOND*      PTCLDY    45  34  65 E5        30.05R
LEXINGTON      PTCLDY    51  34  52 E12       30.04S
FRANKFORT      MOCLDY    48  36  63 E7        30.03F
$$

KYZ091>093-OHZ055-061-077-WVZ005-015-034-035-042-240800
...SOUTHERN OHIO/WEST VIRGINIA...

CITY           SKY/WX    TMP DP  RH WIND       PRES   REMARKS
COVINGTON      CLOUDY    51  34  52 E10       30.05F
COLUMBUS       CLOUDY    45  28  51 CALM      30.10F
DAYTON         CLOUDY    47  31  53 SE10      30.08F
WILMINGTON     CLOUDY    44  33  65 E8        30.07F
HUNTINGTON     CLEAR     45  32  60 NE3       30.08S
CHARLESTON     CLEAR     43  33  68 NE3       30.08S
PINEVILLE*     CLEAR     37  35  91 MISG      30.10F
BECKLEY        CLEAR     37  27  67 CALM      30.05F
BLUEFIELD      CLEAR     44  27  51 CALM      30.05S
$$

VAZ002-007-008-TNZ017-027-036-066-071-240800
...SOUTHWEST VIRGINIA/EAST TENNESSEE...

CITY           SKY/WX    TMP DP  RH WIND       PRES   REMARKS
WISE*          CLEAR     43  25  49 CALM      30.04F
ABINGDON*      CLEAR     43  29  56 CALM      30.03F
BRISTOL        CLEAR     39  29  67 CALM      30.03F
KNOXVILLE      CLEAR     47  34  60 N6        29.98F
OAK RIDGE      CLEAR     48  35  60 NE3       30.01F
CROSSVILLE     CLEAR     46  32  58 NE5       30.00F
NASHVILLE      CLEAR     51  36  56 CALM      29.98F
$$

...KEY TO REMARKS...
VSB - VISIBILITY IN MILES
WCI - WIND CHILL INDEX
HX  - HEAT INDEX

$$



USA.gov is the U.S. government's official web portal to all federal, state and local government web resources and services.